Paris, TX

2:06 AM CDT on March 24, 2017 (GMT -0500)
Cox

Weather History for KPRX - January, 2013

Change the Weather History Date:

Monday, January 14, 2013

  Actual Average Record
Temperature  
Mean Temperature 34 °F -  
Max Temperature 44 °F 50 °F 68 °F (2004)
Min Temperature 24 °F 33 °F 24 °F (2009)
Degree Days  
Heating Degree Days 31    
Moisture  
Dew Point 21 °F    
Average Humidity 63    
Maximum Humidity 86    
Minimum Humidity 39    
Precipitation  
Precipitation 0.00 in - - ()
Sea Level Pressure  
Sea Level Pressure 30.29 in    
Wind  
Wind Speed 11 mph (NNE)    
Max Wind Speed 17 mph    
Max Gust Speed 21 mph    
Visibility 10 miles    
Events      
Averages and records for this station are not official NWS values.
T = Trace of Precipitation, MM = Missing Value Source: NWS Daily Summary

Daily Weather History Graph

Daily Weather History Graph

Search for Another Location

Airport or City:

Trip Planner

Search our weather history database for the weather conditions in past years. The results will help you decide how hot, cold, wet, or windy it might be!

Date:

Astronomy

Jan. 14, 2013 Rise Set
Actual Time 7:26 AM CST 5:35 PM CST
Civil Twilight 6:59 AM CST 6:02 PM CST
Nautical Twilight 6:28 AM CST 6:33 PM CST
Astronomical Twilight 5:58 AM CST 7:03 PM CST
Moon 9:11 AM CST (1/14) 9:09 PM CST (1/14)
Length of Visible Light 11h 03m
Length of Day
10h 09m
Waxing Crescent, 11% of the Moon is Illuminated
Jan 14
Waxing Crescent
Jan 18
First Quarter
Jan 26
Full
Feb 3
Last Quarter
Feb 10
New

Hourly Weather History & Observations

Time (CST) Temp. Windchill Dew Point Humidity Pressure Visibility Wind Dir Wind Speed Gust Speed Precip Events Conditions
12:15 AM 26.6 °F 16.2 °F 19.4 °F 74% 30.30 in 10.0 mi North 11.5 mph - N/A   Clear
12:35 AM 26.6 °F 16.8 °F 19.4 °F 74% 30.30 in 10.0 mi North 10.4 mph 16.1 mph N/A   Clear
12:55 AM 26.6 °F 15.7 °F 19.4 °F 74% 30.30 in 10.0 mi North 12.7 mph - N/A   Clear
1:15 AM 26.6 °F 15.7 °F 19.4 °F 74% 30.30 in 10.0 mi North 12.7 mph - N/A   Clear
1:35 AM 24.8 °F 12.9 °F 19.4 °F 80% 30.28 in 10.0 mi North 13.8 mph - N/A   Clear
1:55 AM 26.6 °F 15.7 °F 19.4 °F 74% 30.29 in 10.0 mi North 12.7 mph - N/A   Clear
2:15 AM 24.8 °F 12.4 °F 19.4 °F 80% 30.27 in 10.0 mi North 15.0 mph - N/A   Clear
2:55 AM 24.8 °F 13.4 °F 19.4 °F 80% 30.27 in 10.0 mi North 12.7 mph - N/A   Clear
3:15 AM 24.8 °F 13.4 °F 19.4 °F 80% 30.27 in 10.0 mi North 12.7 mph - N/A   Clear
3:35 AM 24.8 °F 15.3 °F 19.4 °F 80% 30.29 in 10.0 mi North 9.2 mph - N/A   Clear
4:15 AM 24.8 °F 14.6 °F 19.4 °F 80% 30.31 in 10.0 mi North 10.4 mph - N/A   Clear
4:35 AM 24.8 °F 15.3 °F 19.4 °F 80% 30.30 in 10.0 mi North 9.2 mph - N/A   Clear
4:55 AM 24.8 °F 14.6 °F 21.2 °F 86% 30.29 in 10.0 mi North 10.4 mph - N/A   Clear
5:15 AM 24.8 °F 14.0 °F 21.2 °F 86% 30.30 in 10.0 mi North 11.5 mph - N/A   Mostly Cloudy
5:35 AM 24.8 °F 14.6 °F 19.4 °F 80% 30.33 in 10.0 mi NNW 10.4 mph - N/A   Overcast
5:55 AM 26.6 °F 19.1 °F 19.4 °F 74% 30.34 in 10.0 mi North 6.9 mph - N/A   Overcast
6:15 AM 26.6 °F 16.2 °F 19.4 °F 74% 30.32 in 10.0 mi North 11.5 mph - N/A   Overcast
6:35 AM 26.6 °F 17.5 °F 21.2 °F 80% 30.34 in 10.0 mi North 9.2 mph - N/A   Overcast
6:55 AM 26.6 °F 16.2 °F 19.4 °F 74% 30.35 in 10.0 mi North 11.5 mph - N/A   Overcast
7:15 AM 26.6 °F 15.2 °F 19.4 °F 74% 30.34 in 10.0 mi North 13.8 mph - N/A   Overcast
7:35 AM 26.6 °F 16.8 °F 19.4 °F 74% 30.35 in 10.0 mi NNE 10.4 mph - N/A   Overcast
7:55 AM 26.6 °F 17.5 °F 19.4 °F 74% 30.35 in 10.0 mi NNE 9.2 mph - N/A   Overcast
8:15 AM 28.4 °F 19.1 °F 19.4 °F 69% 30.35 in 10.0 mi North 10.4 mph - N/A   Overcast
8:35 AM 28.4 °F 19.1 °F 21.2 °F 74% 30.37 in 10.0 mi NNW 10.4 mph - N/A   Overcast
8:55 AM 28.4 °F 19.7 °F 21.2 °F 74% 30.40 in 10.0 mi NNW 9.2 mph - N/A   Overcast
9:15 AM 28.4 °F 18.5 °F 19.4 °F 69% 30.39 in 10.0 mi North 11.5 mph - N/A   Overcast
9:35 AM 28.4 °F 19.7 °F 19.4 °F 69% 30.39 in 10.0 mi North 9.2 mph - N/A   Overcast
9:55 AM 30.2 °F 20.2 °F 19.4 °F 64% 30.38 in 10.0 mi North 12.7 mph - N/A   Scattered Clouds
10:15 AM 30.2 °F 20.8 °F 19.4 °F 64% 30.37 in 10.0 mi NNE 11.5 mph - N/A   Mostly Cloudy
10:35 AM 33.8 °F 23.2 °F 19.4 °F 56% 30.34 in 10.0 mi NNE 17.3 mph - N/A   Scattered Clouds
10:55 AM 35.6 °F 26.2 °F 21.2 °F 56% 30.34 in 10.0 mi North 15.0 mph - N/A   Clear
11:15 AM 35.6 °F 28.0 °F 21.2 °F 56% 30.34 in 10.0 mi NNE 10.4 mph 17.3 mph N/A   Clear
11:35 AM 37.4 °F 30.3 °F 21.2 °F 52% 30.33 in 10.0 mi NNE 10.4 mph 17.3 mph N/A   Clear
11:55 AM 37.4 °F 29.3 °F 21.2 °F 52% 30.32 in 10.0 mi NE 12.7 mph - N/A   Clear
12:15 PM 37.4 °F 28.9 °F 21.2 °F 52% 30.30 in 10.0 mi NNE 13.8 mph - N/A   Clear
12:35 PM 39.2 °F 32.0 °F 21.2 °F 49% 30.29 in 10.0 mi NE 11.5 mph - N/A   Clear
12:55 PM 39.2 °F 33.0 °F 21.2 °F 49% 30.28 in 10.0 mi NNE 9.2 mph 17.3 mph N/A   Clear
1:15 PM 41.0 °F 33.5 °F 21.2 °F 45% 30.26 in 10.0 mi NNE 13.8 mph 17.3 mph N/A   Clear
1:35 PM 42.8 °F 36.2 °F 23.0 °F 46% 30.26 in 10.0 mi NE 12.7 mph - N/A   Clear
1:55 PM 42.8 °F 35.8 °F 23.0 °F 46% 30.25 in 10.0 mi ENE 13.8 mph - N/A   Clear
2:15 PM 44.6 °F 38.4 °F 21.2 °F 39% 30.25 in 10.0 mi North 12.7 mph - N/A   Clear
2:35 PM 44.6 °F 37.4 °F 24.8 °F 46% 30.25 in 10.0 mi NE 16.1 mph 20.7 mph N/A   Clear
2:55 PM 44.6 °F 38.1 °F 24.8 °F 46% 30.25 in 10.0 mi NE 13.8 mph - N/A   Clear
3:15 PM 44.6 °F 39.2 °F 24.8 °F 46% 30.26 in 10.0 mi NNE 10.4 mph - N/A   Clear
3:35 PM 44.6 °F 39.2 °F 24.8 °F 46% 30.26 in 10.0 mi NE 10.4 mph - N/A   Clear
4:15 PM 44.6 °F 38.8 °F 21.2 °F 39% 30.26 in 10.0 mi ENE 11.5 mph - N/A   Clear
4:35 PM 44.6 °F 39.7 °F 21.2 °F 39% 30.26 in 10.0 mi ENE 9.2 mph - N/A   Clear
4:55 PM 42.8 °F 38.6 °F 23.0 °F 46% 30.26 in 10.0 mi NE 6.9 mph - N/A   Clear
5:15 PM 42.8 °F 38.6 °F 21.2 °F 42% 30.25 in 10.0 mi NE 6.9 mph - N/A   Clear
5:35 PM 41.0 °F 35.8 °F 21.2 °F 45% 30.25 in 10.0 mi NE 8.1 mph - N/A   Clear
5:55 PM 39.2 °F 35.0 °F 21.2 °F 49% 30.25 in 10.0 mi NE 5.8 mph - N/A   Clear
6:15 PM 39.2 °F 35.9 °F 21.2 °F 49% 30.26 in 10.0 mi NE 4.6 mph - N/A   Clear
6:35 PM 37.4 °F 33.8 °F 23.0 °F 56% 30.27 in 10.0 mi East 4.6 mph - N/A   Clear
6:55 PM 39.2 °F 35.9 °F 21.2 °F 49% 30.27 in 10.0 mi ENE 4.6 mph - N/A   Clear
7:15 PM 35.6 °F 29.2 °F 23.0 °F 60% 30.26 in 10.0 mi East 8.1 mph - N/A   Clear
7:35 PM 35.6 °F 30.7 °F 24.8 °F 65% 30.27 in 10.0 mi East 5.8 mph - N/A   Clear
7:55 PM 35.6 °F 29.9 °F 24.8 °F 65% 30.27 in 10.0 mi East 6.9 mph - N/A   Clear
8:15 PM 35.6 °F 29.9 °F 24.8 °F 65% 30.26 in 10.0 mi East 6.9 mph - N/A   Clear
8:35 PM 33.8 °F 26.4 °F 24.8 °F 70% 30.27 in 10.0 mi ENE 9.2 mph - N/A   Clear
8:55 PM 33.8 °F 27.0 °F 23.0 °F 65% 30.27 in 10.0 mi ENE 8.1 mph - N/A   Clear
9:15 PM 33.8 °F 27.0 °F 23.0 °F 65% 30.27 in 10.0 mi NE 8.1 mph - N/A   Clear
9:35 PM 33.8 °F 26.4 °F 21.2 °F 60% 30.27 in 10.0 mi NE 9.2 mph - N/A   Clear
9:55 PM 33.8 °F 25.3 °F 21.2 °F 60% 30.27 in 10.0 mi ENE 11.5 mph - N/A   Clear
10:15 PM 33.8 °F 25.8 °F 21.2 °F 60% 30.27 in 10.0 mi ENE 10.4 mph - N/A   Clear
10:35 PM 32.0 °F 22.5 °F 19.4 °F 60% 30.27 in 10.0 mi ENE 12.7 mph - N/A   Clear
10:55 PM 32.0 °F 23.0 °F 17.6 °F 55% 30.27 in 10.0 mi ENE 11.5 mph - N/A   Clear
11:15 PM 30.2 °F 21.3 °F 17.6 °F 60% 30.26 in 10.0 mi ENE 10.4 mph - N/A   Clear
11:35 PM 30.2 °F 21.9 °F 17.6 °F 60% 30.26 in 10.0 mi ENE 9.2 mph - N/A   Clear
11:55 PM 28.4 °F 21.2 °F 17.6 °F 64% 30.25 in 10.0 mi ENE 6.9 mph - N/A   Clear